Regional Weather Roundup
Issued by NWS Little Rock, AR

Home | Current Version | Previous Version | Text Only | Print | Product List | Glossary On
Versions: 1 2 3 4 5 6 7 8 9 10 11 12 13 14 15 16 17 18 19 20 21 22 23 24 25 26 27 28 29 30 31 32
000
ASUS44 KLZK 191812
RWRLZK

WEATHER ROUNDUP FOR ARKANSAS
NATIONAL WEATHER SERVICE LITTLE ROCK AR
1200 PM CST THU JAN 19 2017

NOTE: "FAIR" INDICATES FEW OR NO CLOUDS BELOW 12,000 FEET WITH NO
SIGNIFICANT WEATHER AND/OR OBSTRUCTIONS TO VISIBILITY.

ARZ001-003-010-029-191900-
NORTHWEST ARKANSAS

CITY           SKY/WX    TMP DP  RH WIND       PRES   REMARKS
FAYETTEVILLE   PTSUNNY   55  52  89 S13       29.77F
6HR MIN TEMP:  47; 6HR MAX TEMP:  55;

FORT SMITH     CLOUDY    50  47  89 E5        29.80F FOG
6HR MIN TEMP:  46; 6HR MAX TEMP:  50;

HARRISON       FOG       48  48 100 SE7       29.78F VSB 1
6HR MIN TEMP:  42; 6HR MAX TEMP:  48;

BENTONVILLE    CLOUDY   N/A N/A N/A S5        29.76F
                                      6HR PCP:  0.01;

ROGERS         CLOUDY    48  48 100 CALM      29.76F FOG
6HR MIN TEMP:  45; 6HR MAX TEMP:  49; 6HR PCP: TRACE;

SILOAM SPGS    CLOUDY    52  48  87 SW9       29.77F
6HR MIN TEMP:  46; 6HR MAX TEMP:  52;

HIGHFILL       CLOUDY    52  52 100 S5        29.77F FOG
6HR MIN TEMP:  47; 6HR MAX TEMP:  51;

SPRINGDALE     CLOUDY    54  54 100 S5        29.78F
$$

ARZ004-005-016-191900-
NORTH CENTRAL ARKANSAS

CITY           SKY/WX    TMP DP  RH WIND       PRES   REMARKS
BATESVILLE     CLOUDY    46  45  93 CALM      29.83F VSB<1/4
6HR MIN TEMP:  45; 6HR MAX TEMP:  46; 6HR PCP:  0.01;

FLIPPIN        CLOUDY    46  43  87 E5        29.78F
6HR MIN TEMP:  43; 6HR MAX TEMP:  46;

MTN HOME       CLOUDY    47  46  97 SE5       29.78F FOG
6HR MIN TEMP:  42; 6HR MAX TEMP:  47;

$$

ARZ040-041-191900-
WEST CENTRAL ARKANSAS

CITY           SKY/WX    TMP DP  RH WIND       PRES   REMARKS
MENA           CLOUDY    54  52  94 CALM      29.81F
MOUNT IDA      CLOUDY    51  50  96 CALM      29.80F FOG
6HR MIN TEMP:  47; 6HR MAX TEMP:  51;

$$

ARZ009-017-025-026-028-191900-
NORTHEAST ARKANSAS

CITY           SKY/WX    TMP DP  RH WIND       PRES   REMARKS
CORNING        FOG       48  48 100 NE7       29.81F VSB<1/4
JONESBORO      FOG       51  50  96 E5        29.79F VSB 1/4
6HR MIN TEMP:  47; 6HR MAX TEMP:  50; 6HR PCP:  0.02;

NEWPORT        FOG       48  47  96 N3        29.82F VSB 1/4
6HR MIN TEMP:  45; 6HR MAX TEMP:  48;

WALNUT RIDGE   CLOUDY    46  45  93 N8        29.81F VSB<1/4
6HR MIN TEMP:  45; 6HR MAX TEMP:  46; 6HR PCP:  0.02;

BLYTHEVILLE    CLOUDY    55  55 100 SE3       29.81F FOG
6HR MIN TEMP:  50; 6HR MAX TEMP:  56;

NW BLYTHEVILLE FOG       55  54  94 SE3       29.81F VSB 1/2
$$

ARZ022-023-033-042-044-191900-
CENTRAL ARKANSAS

CITY           SKY/WX    TMP DP  RH WIND       PRES   REMARKS
LITTLE ROCK    CLOUDY    51  51 100 CALM      29.82F FOG
6HR MIN TEMP:  46; 6HR MAX TEMP:  51; 6HR PCP: TRACE;

N LITTLE ROCK    N/A     51  50  98 CALM      29.82F
6HR MIN TEMP:  46; 6HR MAX TEMP:  51;

JACKSONVILLE   CLOUDY    50  50 100 CALM      29.80F FOG
6HR MIN TEMP:  47; 6HR MAX TEMP:  50;

SEARCY         FOG       49  49 100 CALM      29.84F VSB 3/4
6HR MIN TEMP:  46; 6HR MAX TEMP:  50;

HOT SPRINGS    CLOUDY    51  51 100 CALM      29.81F FOG
6HR MIN TEMP:  48; 6HR MAX TEMP:  51;

RUSSELLVILLE   CLOUDY    49  48  97 CALM      29.80F
6HR MIN TEMP:  46; 6HR MAX TEMP:  49;

CLINTON        FOG       50  50 100 CALM      29.81F VSB 1/2
$$

ARZ036-191900-
EAST ARKANSAS

CITY           SKY/WX    TMP DP  RH WIND       PRES   REMARKS
WEST MEMPHIS   CLOUDY    57  32  38 S3        29.79F
6HR MIN TEMP:  53; 6HR MAX TEMP:  57; 6HR PCP:  0.21;

$$

ARZ050-053-066-070-073-191900-
SOUTHWEST ARKANSAS

CITY           SKY/WX    TMP DP  RH WIND       PRES   REMARKS
ARKADELPHIA    CLOUDY    51  50  96 CALM      29.83F FOG
6HR MIN TEMP:  48; 6HR MAX TEMP:  51;

CAMDEN         CLOUDY    54  50  87 SE3       29.82F
TEXARKANA      CLOUDY    51  51 100 SW3       29.82F FOG
6HR MIN TEMP:  49; 6HR MAX TEMP:  51;

EL DORADO      CLOUDY    53  53 100 E3        29.82F
6HR MIN TEMP:  49; 6HR MAX TEMP:  53;

DE QUEEN       CLOUDY    51  51 100 S5        29.81F FOG
6HR MIN TEMP:  49; 6HR MAX TEMP:  51;

$$

ARZ056-057-069-191900-
SOUTHEAST ARKANSAS

CITY           SKY/WX    TMP DP  RH WIND       PRES   REMARKS
PINE BLUFF     CLOUDY    51  50  96 CALM      29.81F
6HR MIN TEMP:  48; 6HR MAX TEMP:  52; 6HR PCP: TRACE;

STUTTGART      CLOUDY    52  46  82 NW5       29.81F
6HR MIN TEMP:  48; 6HR MAX TEMP:  52;

MONTICELLO     CLOUDY    54  53  97 SE8       29.79F FOG
6HR MIN TEMP:  52; 6HR MAX TEMP:  55; 6HR PCP: TRACE;


$$






USA.gov is the U.S. government's official web portal to all federal, state and local government web resources and services.